User: anonymous   Login
Location: Ottawa
(45.4170°N, 75.7000°W)
Time: 12:46:02
(UTC-04:00)
Language:

Aureole 3 Rocket - Orbit

View from above orbital plane
View from above orbital plane
View from above satellite
View from above satellite

Ground track
Ground track

The orbit data is extracted from the following two-line orbital elements,

1 12849U 81094B   14298.15036248  .00002461  00000-0  22750-3 0   240
2 12849 082.4946 187.3324 0911709 130.0056 238.4816 13.48380320611630
Epoch (UTC): 25 October 2014 03:36:31
Eccentricity: 0.0911709
inclination: 82.4946°
perigee height: 398 km
apogee height: 1758 km
right ascension of ascending node: 187.3324°
argument of perigee: 130.0056°
revolutions per day: 13.48380320
mean anomaly at epoch: 238.4816°
orbit number at epoch: 61163

The dashed part of the orbit path shows where the satellite is in the earth's shadow,  

DLR